WetterOnline ( http://www.wetteronline.de )

Wetter aktuell Nuthetal

Aktuelles Wetter: Berlin-Dahlem (70m)

6-stündlich | Neueste Meldungen
Ortszeit Temperatur Wetter
Do, 15.11. 7:00 5.0° C wolkig
Do, 15.11. 1:00 5.5° C wolkig
Mi, 14.11. 19:00 6.0° C wolkig
Mi, 14.11. 13:00 10.5° C wolkig
Mi, 14.11. 7:00 4.8° C fast wolkenlos
Mi, 14.11. 1:00 7.7° C wolkig
Di, 13.11. 19:00 9.2° C leicht bewölkt
Di, 13.11. 13:00 11.3° C leichter Regen
Ortszeit Temperatur Wetter
Do, 15.11. 12:00 8.1° C wolkig
Do, 15.11. 11:00 7.3° C wolkig
Do, 15.11. 10:00 6.6° C wolkig
Do, 15.11. 9:00 5.9° C wolkig
Do, 15.11. 8:00 4.8° C wolkig
Do, 15.11. 7:00 5.0° C wolkig
Ortszeit Relative Feuchte Sichtweite
Do, 15.11. 7:00 100% 14 km
Do, 15.11. 1:00 100% 15 km
Mi, 14.11. 19:00 100% 15 km
Mi, 14.11. 13:00 81% 20 km
Mi, 14.11. 7:00 100% 15 km
Mi, 14.11. 1:00 100% 50 km
Di, 13.11. 19:00 92% 30 km
Di, 13.11. 13:00 100% 6 km
Ortszeit Relative Feuchte Sichtweite
Do, 15.11. 12:00 89% 20 km
Do, 15.11. 11:00 92% 18 km
Do, 15.11. 10:00 97% 16 km
Do, 15.11. 9:00 100% 16 km
Do, 15.11. 8:00 100% 15 km
Do, 15.11. 7:00 100% 14 km
Ortszeit Niederschlagsmenge Niederschlagsart
Do, 15.11. 7:00 0.0 l/m2 in 12 Std. -
Do, 15.11. 1:00 0.0 l/m2 in 6 Std. -
Mi, 14.11. 19:00 0.0 l/m2 in 12 Std. -
Mi, 14.11. 13:00 0.0 l/m2 in 6 Std. -
Mi, 14.11. 7:00 0.1 l/m2 in 12 Std. -
Mi, 14.11. 1:00 0.1 l/m2 in 6 Std. Schauer
Di, 13.11. 19:00 9 l/m2 in 12 Std. Regenschauer
Di, 13.11. 13:00 8 l/m2 in 6 Std. Regen
Ortszeit Niederschlagsmenge Niederschlagsart
Do, 15.11. 12:00 keine Meldung -
Do, 15.11. 11:00 keine Meldung -
Do, 15.11. 10:00 keine Meldung -
Do, 15.11. 9:00 keine Meldung -
Do, 15.11. 8:00 keine Meldung -
Do, 15.11. 7:00 keine Meldung -
Ortszeit Stärke Spitze Richtung
km/h Bft. km/h Grad Sektor
Do, 15.11. 7:00 11 2 - 120° SO
Do, 15.11. 1:00 7 2 - 150° SO
Mi, 14.11. 19:00 7 2 - 120° SO
Mi, 14.11. 13:00 11 2 - 260° W
Mi, 14.11. 7:00 18 3 - 250° W
Mi, 14.11. 1:00 14 3 - 260° W
Di, 13.11. 19:00 18 3 - 270° W
Di, 13.11. 13:00 7 2 - 270° W
Ortszeit Stärke Spitze Richtung
km/h Bft. km/h Grad Sektor
Do, 15.11. 12:00 11 2 - 130° SO
Do, 15.11. 11:00 11 2 - 140° SO
Do, 15.11. 10:00 11 2 - 130° SO
Do, 15.11. 9:00 11 2 - 140° SO
Do, 15.11. 8:00 11 2 - 130° SO
Do, 15.11. 7:00 11 2 - 120° SO
Ortszeit Untergrenze Bedeckung Gattung
total tief tief mittel hoch
Do, 15.11. 7:00 3300 m 7/8 7/8 - As -
Do, 15.11. 1:00 3300 m 7/8 4/8 - As Ci
Mi, 14.11. 19:00 4500 m 7/8 6/8 - Ac -
Mi, 14.11. 13:00 390 m 6/8 5/8 Cu Ac Ci
Mi, 14.11. 7:00 7800 m 1/8 0/8 - - Ci
Mi, 14.11. 1:00 870 m 6/8 5/8 Sc - -
Di, 13.11. 19:00 780 m 5/8 3/8 Cu - Ci
Di, 13.11. 13:00 240 m 8/8 6/8 St Ns -
Ortszeit Bedeckungsgrad in Achtel und Wolkenuntergrenze
Do, 15.11. 12:00 1(3000m) 7(3600m)
Do, 15.11. 11:00 3(3000m) 7(3900m)
Do, 15.11. 10:00 2(3600m) 6(3900m)
Do, 15.11. 9:00 7(2700m)
Do, 15.11. 8:00 5(3000m)
Do, 15.11. 7:00 2(3300m) 6(3600m)
Ortszeit Luftdruck NN (hPa) Tendenz (hPa in 3 Std.)
Do, 15.11. 7:00 1030 + 0,2
Do, 15.11. 1:00 1030 0,0
Mi, 14.11. 19:00 1030 - 0,1
Mi, 14.11. 13:00 1030 + 0,2
Mi, 14.11. 7:00 1029 + 0,4
Mi, 14.11. 1:00 1027 + 1,2
Di, 13.11. 19:00 1025 + 1,9
Di, 13.11. 13:00 1022 + 0,9
Ortszeit Luftdruck NN (hPa) Tendenz (hPa in 3 Std.)
Do, 15.11. 12:00 1030 0,0
Do, 15.11. 11:00 1031 + 0,5
Do, 15.11. 10:00 1031 + 0,8
Do, 15.11. 9:00 1031 + 0,8
Do, 15.11. 8:00 1030 + 0,5
Do, 15.11. 7:00 1030 + 0,2
Ortszeit Schneehöhe (cm)
Do, 15.11. 7:00 0
Do, 15.11. 1:00 0
Mi, 14.11. 19:00 0
Mi, 14.11. 13:00 0
Mi, 14.11. 7:00 0
Mi, 14.11. 1:00 0
Di, 13.11. 19:00 0
Di, 13.11. 13:00 0
Ortszeit Schneehöhe (cm)
Do, 15.11. 12:00 -
Do, 15.11. 11:00 -
Do, 15.11. 10:00 -
Do, 15.11. 9:00 -
Do, 15.11. 8:00 -
Do, 15.11. 7:00 0
Link zu dieser Seite / Seite empfehlen

Das Wetter in ...